{"data":{"norad_id":59358,"intl_designator":"2024-060L","name":"STARLINK-31559","alt_names":[],"object_type":"PAYLOAD","status":"ACTIVE","operator":null,"country":"US","launch_date":"2024-03-31","launch_site_code":"AFETR","launch_vehicle":null,"mission":null,"orbit_class":"UNKNOWN","rcs_meters":null,"size_class":null,"mass_kg":null,"dimensions":null,"purposes":["comms"],"wikipedia_slug":null,"has_3d_model":false,"image_url":null,"decayed_at":null,"tle_current":{"epoch":"2026-09-21T07:42:24.762816Z","epoch_age_seconds":91361,"freshness":"FRESH","line1":"1 59358U 24060L   26264.32111994  .00001106  00000+0  49733-4 0  9999","line2":"2 59358  43.0036 234.9048 0001438 267.0401  93.0286 15.27574005139988","mean_motion":15.27574005,"eccentricity":0.0001438,"inclination_deg":43.0036,"raan_deg":234.9048,"arg_perigee_deg":267.0401,"mean_anomaly_deg":93.0286,"bstar":4.9733e-5,"rev_number":13998,"period_min":94.267118665717,"perigee_km":482.08040614305,"apogee_km":484.05368842705,"semimajor_km":6861.2040472851,"source":"CELESTRAK","updated_at":"2026-09-22T09:00:48.904944Z"}}}